Home   Weather   Latiano   Past weeks
Flag for Italy

Past Weather in Latiano, Italy — Yesterday and Last 2 Weeks

Now
75 °F

Clear.


Feels Like: 77 °F
Forecast: 88 / 69 °F
Wind: 6 mph from Southeast

Location: Brindisi Airport

Current Time: Jun 15, 2019 at 11:33:58 pm

Latest Report: Jun 15, 2019 at 10:50 pm


Visibility: 10 mi

Pressure: 29.86 "Hg

Humidity: 74%

Dew Point: 66 °F

Location of LatianoLocation

Past Weather in Latiano — Graph

°F

Latiano Temperature Yesterday

Maximum temperature yesterday: 79 °F (at 1:20 pm)
Minimum temperature yesterday: 72 °F (at 12:20 am)
Average temperature yesterday: 75 °F

High & Low Weather Summary for the Past Weeks

 TemperatureHumidityPressure
High91 °F (Jun 13, 12:50 pm)100% (Jun 7, 5:20 am)30.12 "Hg (Jun 7, 5:20 am)
Low57 °F (Jun 1, 4:20 am)33% (Jun 12, 3:50 pm)29.80 "Hg (Jun 11, 3:20 am)
Average73 °F71%29.97 "Hg
* Reported May 31 10:20 pm — Jun 15 10:20 pm, Latiano. Weather by CustomWeather, © 2019

Note: Actual official high and low records may vary slightly from our data, if they occured in-between our weather recording intervals... More about our weather records

Advertising

Latiano Weather History for the Previous 24 Hours

Scroll right to see more
 ConditionsComfort  
Time TempWeatherWind HumidityBarometerVisibility
10:20 pm
Sat, Jun 15
77 °FClear.8 mph74%29.86 "Hg10 mi
9:20 pm79 °FClear.6 mph61%29.86 "Hg10 mi
8:50 pm79 °FClear.3 mph65%29.83 "Hg10 mi
8:20 pm79 °FClear.1 mph65%29.83 "Hg10 mi
7:50 pm81 °FSunny.3 mph62%29.83 "Hg10 mi
7:20 pm79 °FSunny.5 mph70%29.83 "Hg10 mi
6:50 pm82 °FPassing clouds.3 mph58%29.86 "HgN/A
6:20 pm82 °FSunny.6 mph58%29.86 "Hg10 mi
5:50 pm84 °FSunny.8 mph55%29.86 "Hg10 mi
5:20 pm82 °FSunny.8 mph58%29.86 "Hg10 mi
4:50 pm82 °FSunny.8 mph58%29.89 "Hg10 mi
4:20 pm82 °FSunny.7 mph51%29.89 "Hg10 mi
3:50 pm82 °FSunny.8 mph55%29.89 "Hg10 mi
3:20 pm82 °FSunny.9 mph55%29.89 "Hg10 mi
2:50 pm84 °FPassing clouds.8 mph51%29.89 "HgN/A
2:20 pm82 °FPassing clouds.9 mph55%29.92 "HgN/A
1:50 pm82 °FSunny.9 mph51%29.92 "Hg10 mi
1:20 pm79 °FPassing clouds.7 mph65%29.92 "HgN/A
12:50 pm79 °FPassing clouds.8 mph61%29.92 "HgN/A
12:20 pm79 °FPassing clouds.9 mph65%29.92 "HgN/A
11:50 am81 °FSunny.9 mph54%29.92 "Hg10 mi
11:20 am82 °FSunny.9 mph48%29.92 "Hg10 mi
10:50 am82 °FSunny.8 mph48%29.92 "Hg10 mi
10:20 am84 °FSunny.9 mph40%29.92 "Hg10 mi
9:50 am82 °FSunny.9 mph42%29.92 "Hg10 mi
9:20 am81 °FSunny.8 mph45%29.92 "Hg10 mi
8:50 am82 °FSunny.8 mph40%29.92 "Hg10 mi
8:20 am81 °FSunny.9 mph45%29.92 "Hg10 mi
7:50 am77 °FSunny.8 mph61%29.92 "Hg10 mi
7:20 am79 °FSunny.9 mph48%29.92 "Hg10 mi
6:50 am77 °FSunny.10 mph54%29.92 "Hg10 mi
6:20 am73 °FSunny.9 mph69%29.92 "Hg10 mi
5:50 am72 °FSunny.8 mph73%29.92 "Hg10 mi
5:20 am72 °FSunny.9 mph73%29.92 "Hg10 mi
4:50 am72 °FClear.8 mph73%29.92 "Hg10 mi
4:20 am72 °FClear.5 mph73%29.92 "Hg10 mi
3:50 am73 °FClear.7 mph65%29.92 "Hg10 mi
1:50 am77 °FClear.12 mph51%29.95 "Hg10 mi
1:20 am77 °FClear.10 mph51%29.95 "Hg10 mi
12:50 am73 °FClear.10 mph57%29.98 "Hg10 mi
12:20 am73 °FClear.8 mph61%29.95 "Hg10 mi
11:50 pm
Fri, Jun 14
72 °FClear.9 mph57%29.98 "Hg10 mi
11:20 pm72 °FClear.9 mph61%29.98 "Hg10 mi
Weather by CustomWeather, © 2019

See weather overview